ANA125 KLAX-RJTT

Flight info

Callsign ANA125
Flight time N/A
Altitude 36000
Route SUMMR2 MCKEY DCT LIBBO DCT BRINY DCT BOARS DCT AMAKR DCT REDWD DCT UNVER DCT 42N130W 47N140W 49N150W/N0498F380 50N160W 50N170W 49N180E 45N170E/N0482F400 41N160E EMRON OTR7 ADNAP Y807 POLIX
Aircraft B789/H-SDE1E2E3FGHIJ2J3J4J5M1RWXY/LB1D1

Departure

Time 2026-05-07 23:41
Airport Los Angeles International Airport (KLAX)

Arrival

Time N/A
Airport Tokyo Haneda International Airport (RJTT)
Time Latitude Longitude Altitude Speed Heading
2026-05-07 22:17 33.94177 -118.41096 100 ft 0 kts 82°
2026-05-07 23:28 33.94174 -118.41126 100 ft 4 kts 83°
2026-05-07 23:28 33.94171 -118.41158 100 ft 4 kts 83°
2026-05-07 23:29 33.94169 -118.41184 100 ft 3 kts 72°
2026-05-07 23:29 33.94161 -118.41206 100 ft 4 kts 40°
2026-05-07 23:29 33.94153 -118.41212 101 ft 4 kts 341°
2026-05-07 23:29 33.94129 -118.41201 100 ft 4 kts 347°
2026-05-07 23:30 33.94121 -118.41199 100 ft 0 kts 353°
2026-05-07 23:34 33.94125 -118.41199 100 ft 2 kts 353°
2026-05-07 23:34 33.94152 -118.41204 102 ft 6 kts 352°
2026-05-07 23:35 33.94205 -118.41212 100 ft 9 kts 353°
2026-05-07 23:35 33.94282 -118.41223 101 ft 12 kts 353°
2026-05-07 23:35 33.94366 -118.41235 102 ft 12 kts 353°
2026-05-07 23:35 33.94447 -118.41247 101 ft 12 kts 353°
2026-05-07 23:36 33.94525 -118.41257 101 ft 11 kts 354°
2026-05-07 23:36 33.94599 -118.41267 103 ft 10 kts 354°
2026-05-07 23:36 33.94668 -118.41277 103 ft 9 kts 349°
2026-05-07 23:36 33.94728 -118.41290 103 ft 8 kts 352°
2026-05-07 23:37 33.94770 -118.41288 103 ft 3 kts 25°
2026-05-07 23:37 33.94779 -118.41274 104 ft 3 kts 56°
2026-05-07 23:37 33.94794 -118.41229 103 ft 9 kts 75°
2026-05-07 23:37 33.94808 -118.41133 105 ft 15 kts 83°
2026-05-07 23:38 33.94822 -118.41001 106 ft 17 kts 83°
2026-05-07 23:38 33.94837 -118.40845 105 ft 19 kts 83°
2026-05-07 23:38 33.94853 -118.40690 105 ft 18 kts 83°
2026-05-07 23:38 33.94868 -118.40540 106 ft 18 kts 83°
2026-05-07 23:39 33.94883 -118.40394 105 ft 17 kts 83°
2026-05-07 23:39 33.94898 -118.40251 105 ft 17 kts 83°
2026-05-07 23:39 33.94912 -118.40110 105 ft 17 kts 83°
2026-05-07 23:39 33.94928 -118.39973 105 ft 16 kts 76°
2026-05-07 23:40 33.94950 -118.39932 106 ft 1 kts 39°
2026-05-07 23:40 33.94973 -118.39918 108 ft 6 kts 17°
2026-05-07 23:40 33.95027 -118.39921 110 ft 9 kts 334°
2026-05-07 23:40 33.95038 -118.40001 113 ft 14 kts 262°
2026-05-07 23:41 33.95004 -118.40320 115 ft 71 kts 263°
2026-05-07 23:41 33.94915 -118.41193 111 ft 135 kts 263°
2026-05-07 23:41 33.94778 -118.42515 176 ft 182 kts 267°
2026-05-07 23:41 33.94617 -118.44064 963 ft 186 kts 265°
2026-05-07 23:42 33.94424 -118.45629 2016 ft 192 kts 263°
2026-05-07 23:42 33.94268 -118.47242 2743 ft 204 kts 265°
2026-05-07 23:42 33.94150 -118.49041 3219 ft 227 kts 264°
2026-05-07 23:42 33.93949 -118.51026 3704 ft 251 kts 263°
2026-05-07 23:43 33.93733 -118.53159 4238 ft 257 kts 263°
2026-05-07 23:43 33.93511 -118.55337 4748 ft 266 kts 263°
2026-05-07 23:43 33.93453 -118.57589 5007 ft 274 kts 272°
2026-05-07 23:43 33.93512 -118.59875 5009 ft 271 kts 270°
2026-05-07 23:44 33.93404 -118.62130 5012 ft 269 kts 264°
2026-05-07 23:44 33.93180 -118.64365 5006 ft 269 kts 263°
2026-05-07 23:44 33.92979 -118.66616 4965 ft 272 kts 265°
2026-05-07 23:44 33.92815 -118.68867 4979 ft 269 kts 265°
2026-05-07 23:45 33.92648 -118.71121 5011 ft 275 kts 265°
2026-05-07 23:45 33.92471 -118.73376 6175 ft 266 kts 264°
2026-05-07 23:45 33.92295 -118.75600 7089 ft 274 kts 265°
2026-05-07 23:45 33.92117 -118.77901 8030 ft 278 kts 265°
2026-05-07 23:46 33.91932 -118.80247 8912 ft 284 kts 265°
2026-05-07 23:46 33.91745 -118.82638 9792 ft 289 kts 265°
2026-05-07 23:46 33.91775 -118.85100 10386 ft 305 kts 274°
2026-05-07 23:46 33.91861 -118.87766 10609 ft 333 kts 272°
2026-05-07 23:47 33.91911 -118.90668 10817 ft 359 kts 272°
2026-05-07 23:47 33.91998 -118.93725 11527 ft 367 kts 273°
2026-05-07 23:47 33.92101 -118.96813 12332 ft 373 kts 274°
2026-05-07 23:47 33.92225 -118.99964 13131 ft 377 kts 278°
2026-05-07 23:48 33.92960 -119.02977 13890 ft 378 kts 299°
2026-05-07 23:48 33.94297 -119.05717 14629 ft 382 kts 303°
2026-05-07 23:48 33.95724 -119.08438 15422 ft 386 kts 304°
2026-05-07 23:48 33.97171 -119.11179 16146 ft 391 kts 304°
2026-05-07 23:49 33.98611 -119.13982 16871 ft 395 kts 303°
2026-05-07 23:49 34.00062 -119.16821 17557 ft 399 kts 305°
2026-05-07 23:49 34.01886 -119.19332 18226 ft 399 kts 322°
2026-05-07 23:49 34.04110 -119.21343 18843 ft 402 kts 326°
2026-05-07 23:50 34.06405 -119.23295 19512 ft 405 kts 327°
2026-05-07 23:50 34.08723 -119.25256 20124 ft 409 kts 326°
2026-05-07 23:50 34.11052 -119.27264 20743 ft 413 kts 326°
2026-05-07 23:50 34.13366 -119.29271 21329 ft 416 kts 326°
2026-05-07 23:51 34.15732 -119.31309 21898 ft 420 kts 326°
2026-05-07 23:51 34.18125 -119.33363 22445 ft 423 kts 326°
2026-05-07 23:51 34.20528 -119.35433 22982 ft 426 kts 326°
2026-05-07 23:51 34.22949 -119.37527 23483 ft 429 kts 326°
2026-05-07 23:52 34.25392 -119.39638 23968 ft 433 kts 326°
2026-05-07 23:52 34.27852 -119.41764 24452 ft 436 kts 326°
2026-05-07 23:52 34.30325 -119.43903 24930 ft 439 kts 326°
2026-05-07 23:52 34.32820 -119.46061 25355 ft 442 kts 326°
2026-05-07 23:53 34.35328 -119.48234 25816 ft 445 kts 326°
2026-05-07 23:53 34.37857 -119.50426 26218 ft 448 kts 326°
2026-05-07 23:53 34.40385 -119.52655 26630 ft 451 kts 322°
2026-05-07 23:53 34.42607 -119.55349 27014 ft 455 kts 312°
2026-05-07 23:54 34.44684 -119.58276 27349 ft 459 kts 312°
2026-05-07 23:54 34.46752 -119.61239 27720 ft 461 kts 311°
2026-05-07 23:54 34.48836 -119.64212 28095 ft 464 kts 312°
2026-05-07 23:54 34.50917 -119.67154 28451 ft 466 kts 312°
2026-05-07 23:55 34.53035 -119.70152 28797 ft 469 kts 312°
2026-05-07 23:55 34.55159 -119.73177 29142 ft 471 kts 312°
2026-05-07 23:55 34.57288 -119.76217 29453 ft 474 kts 312°
2026-05-07 23:55 34.59440 -119.79280 29784 ft 476 kts 312°
2026-05-07 23:56 34.61597 -119.82351 30080 ft 478 kts 312°
2026-05-07 23:56 34.63731 -119.85397 30377 ft 480 kts 312°
2026-05-07 23:56 34.65924 -119.88533 30667 ft 483 kts 312°
2026-05-07 23:56 34.68076 -119.91610 30939 ft 484 kts 312°
2026-05-07 23:57 34.70259 -119.94733 31230 ft 486 kts 312°
2026-05-07 23:57 34.72458 -119.97881 31476 ft 488 kts 312°
2026-05-07 23:57 34.74660 -120.01041 31731 ft 490 kts 312°
2026-05-07 23:57 34.76865 -120.04205 31975 ft 491 kts 311°
2026-05-07 23:58 34.79076 -120.07382 32235 ft 493 kts 311°
2026-05-07 23:58 34.81295 -120.10570 32483 ft 494 kts 311°
2026-05-07 23:58 34.83519 -120.13769 32754 ft 495 kts 311°
2026-05-07 23:58 34.85736 -120.16962 33106 ft 494 kts 311°
2026-05-07 23:59 34.87953 -120.20159 33448 ft 492 kts 311°
2026-05-07 23:59 34.90156 -120.23338 33760 ft 491 kts 311°
2026-05-07 23:59 34.92325 -120.26469 34105 ft 490 kts 311°
2026-05-07 23:59 34.94555 -120.29693 34429 ft 489 kts 311°
2026-05-08 00:00 34.96713 -120.32815 34762 ft 487 kts 311°
2026-05-08 00:00 34.98889 -120.35965 35077 ft 485 kts 311°
2026-05-08 00:00 35.01070 -120.39126 35400 ft 484 kts 311°
2026-05-08 00:00 35.03228 -120.42256 35690 ft 482 kts 311°
2026-05-08 00:01 35.05390 -120.45396 35962 ft 481 kts 311°
2026-05-08 00:01 35.07550 -120.48536 36050 ft 484 kts 311°
2026-05-08 00:01 35.11872 -120.54825 36050 ft 480 kts 311°
2026-05-08 00:02 35.16147 -120.61058 36049 ft 478 kts 311°
2026-05-08 00:02 35.20415 -120.67291 36042 ft 478 kts 311°
2026-05-08 00:03 35.24690 -120.73548 36057 ft 479 kts 311°
2026-05-08 00:03 35.28964 -120.79810 36051 ft 479 kts 311°
2026-05-08 00:04 35.33222 -120.86065 36051 ft 478 kts 311°
2026-05-08 00:04 35.37480 -120.92327 36048 ft 478 kts 311°
2026-05-08 00:05 35.41727 -120.98587 36048 ft 477 kts 311°
2026-05-08 00:05 35.45940 -121.04807 36049 ft 478 kts 310°
2026-05-08 00:06 35.50199 -121.11077 36051 ft 479 kts 311°
2026-05-08 00:06 35.54556 -121.17262 36052 ft 478 kts 311°
2026-05-08 00:07 35.58857 -121.23500 36057 ft 477 kts 311°
2026-05-08 00:07 35.62438 -121.28650 36054 ft 477 kts 311°
2026-05-08 00:08 35.66738 -121.34867 36057 ft 477 kts 311°
2026-05-08 00:08 35.71044 -121.41105 36063 ft 479 kts 311°
2026-05-08 00:09 35.75361 -121.47364 36080 ft 478 kts 311°